| time (UTC) | temp F | wind direction | speed MPH | gust MPH | rain 1hr in | rain 24hr in | rain mn in | humidity % | barometer mb |
| 20260507040903 | 49 | 36 | 1.0 | 2.0 | 0.00 | 1.52 | 0.00 | 92 | 1010.9 |
| 20260507040703 | 49 | 15 | 0.0 | 2.0 | 0.00 | 1.52 | 0.00 | 92 | 1010.9 |
| 20260507040603 | 49 | 357 | 0.0 | 2.0 | 0.00 | 1.52 | 0.00 | 92 | 1010.9 |
| 20260507040505 | 49 | 350 | 0.0 | 2.0 | 0.00 | 1.52 | 0.00 | 92 | 1010.9 |
| 20260507040404 | 49 | 350 | 0.0 | 2.0 | 0.00 | 1.52 | 0.00 | 92 | 1010.9 |
| 20260507040304 | 49 | 350 | 0.0 | 2.0 | 0.00 | 1.52 | 0.00 | 92 | 1010.9 |
| 20260507040204 | 49 | 346 | 0.0 | 2.0 | 0.00 | 1.52 | 0.00 | 92 | 1010.8 |
| 20260507040104 | 49 | 335 | 1.0 | 3.0 | 0.00 | 1.52 | 0.00 | 92 | 1010.9 |
| 20260507040007 | 49 | 329 | 1.0 | 3.0 | 0.00 | 1.52 | 0.00 | 92 | 1010.9 |
| 20260507035904 | 49 | 324 | 1.0 | 3.0 | 0.00 | 1.52 | 0.00 | 92 | 1010.9 |
| 20260507035803 | 49 | 320 | 1.0 | 3.0 | 0.00 | 1.52 | 0.00 | 92 | 1010.8 |
| 20260507035714 | 49 | 317 | 1.0 | 3.0 | 0.00 | 1.52 | 0.00 | 92 | 1010.9 |
| 20260507035604 | 49 | 314 | 1.0 | 3.0 | 0.00 | 1.52 | 0.00 | 92 | 1010.9 |
| 20260507035504 | 49 | 314 | 1.0 | 3.0 | 0.00 | 1.52 | 0.00 | 92 | 1011.0 |
| 20260507035403 | 49 | 314 | 1.0 | 3.0 | 0.00 | 1.52 | 0.00 | 92 | 1010.9 |
| 20260507035306 | 49 | 313 | 1.0 | 3.0 | 0.00 | 1.52 | 0.00 | 92 | 1010.9 |
| 20260507035204 | 49 | 310 | 1.0 | 3.0 | 0.00 | 1.52 | 0.00 | 92 | 1011.0 |
| 20260507035104 | 49 | 309 | 1.0 | 3.0 | 0.00 | 1.52 | 0.00 | 92 | 1010.9 |
| 20260507034804 | 49 | 310 | 1.0 | 3.0 | 0.00 | 1.52 | 0.00 | 92 | 1010.9 |
| 20260507034703 | 49 | 309 | 1.0 | 3.0 | 0.00 | 1.52 | 0.00 | 92 | 1010.9 |
| 20260507034603 | 49 | 308 | 1.0 | 3.0 | 0.00 | 1.52 | 0.00 | 92 | 1010.8 |
| 20260507034505 | 49 | 306 | 1.0 | 3.0 | 0.00 | 1.52 | 0.00 | 92 | 1010.7 |
| 20260507034304 | 49 | 307 | 1.0 | 3.0 | 0.00 | 1.52 | 0.00 | 92 | 1010.9 |
| 20260507033903 | 49 | 302 | 2.0 | 4.0 | 0.00 | 1.52 | 0.00 | 92 | 1010.9 |
| 20260507033803 | 49 | 298 | 2.0 | 4.0 | 0.00 | 1.52 | 0.00 | 92 | 1010.9 |
| 20260507033603 | 49 | 291 | 2.0 | 4.0 | 0.00 | 1.52 | 0.00 | 92 | 1010.9 |
| 20260507033504 | 49 | 289 | 2.0 | 4.0 | 0.00 | 1.52 | 0.00 | 92 | 1010.9 |
| 20260507033404 | 49 | 288 | 2.0 | 4.0 | 0.00 | 1.52 | 0.00 | 92 | 1010.9 |
| 20260507033304 | 49 | 286 | 2.0 | 4.0 | 0.00 | 1.52 | 0.00 | 92 | 1010.9 |
| 20260507033204 | 49 | 281 | 2.0 | 4.0 | 0.00 | 1.52 | 0.00 | 92 | 1010.9 |
| 20260507033103 | 49 | 281 | 2.0 | 4.0 | 0.00 | 1.52 | 0.00 | 92 | 1010.9 |
| 20260507033004 | 49 | 283 | 2.0 | 4.0 | 0.00 | 1.52 | 0.00 | 92 | 1011.0 |
| 20260507032903 | 49 | 286 | 2.0 | 4.0 | 0.00 | 1.52 | 0.00 | 92 | 1010.9 |
| 20260507032804 | 49 | 291 | 1.0 | 4.0 | 0.00 | 1.52 | 0.00 | 92 | 1010.8 |
| 20260507032703 | 49 | 293 | 1.0 | 4.0 | 0.00 | 1.52 | 0.00 | 92 | 1010.9 |
| 20260507032603 | 49 | 300 | 1.0 | 4.0 | 0.00 | 1.52 | 0.00 | 92 | 1010.8 |
| 20260507032511 | 49 | 311 | 1.0 | 3.0 | 0.00 | 1.52 | 0.00 | 92 | 1010.8 |
| 20260507032305 | 49 | 326 | 0.0 | 2.0 | 0.00 | 1.52 | 0.00 | 92 | 1010.8 |
| 20260507032215 | 49 | 326 | 0.0 | 2.0 | 0.00 | 1.52 | 0.00 | 92 | 1010.8 |
| 20260507032004 | 49 | 326 | 1.0 | 3.0 | 0.00 | 1.52 | 0.00 | 92 | 1010.9 |
| 20260507031904 | 49 | 326 | 1.0 | 3.0 | 0.00 | 1.52 | 0.00 | 92 | 1010.8 |
| 20260507031804 | 49 | 326 | 1.0 | 3.0 | 0.00 | 1.52 | 0.00 | 92 | 1010.8 |
| 20260507031704 | 49 | 326 | 1.0 | 3.0 | 0.00 | 1.52 | 0.00 | 92 | 1010.8 |
| 20260507031603 | 50 | 328 | 1.0 | 3.0 | 0.00 | 1.52 | 0.00 | 92 | 1010.8 |
| 20260507031504 | 50 | 330 | 1.0 | 3.0 | 0.00 | 1.52 | 0.00 | 92 | 1010.7 |
| 20260507031404 | 50 | 332 | 1.0 | 3.0 | 0.00 | 1.52 | 0.00 | 92 | 1010.8 |
| 20260507031304 | 50 | 332 | 1.0 | 3.0 | 0.00 | 1.52 | 0.00 | 92 | 1010.8 |
| 20260507031203 | 50 | 334 | 1.0 | 3.0 | 0.00 | 1.52 | 0.00 | 92 | 1010.8 |
| 20260507031103 | 50 | 337 | 1.0 | 3.0 | 0.00 | 1.52 | 0.00 | 92 | 1010.8 |
| 20260507031004 | 50 | 343 | 1.0 | 3.0 | 0.00 | 1.52 | 0.00 | 92 | 1010.8 |
| 20260507030908 | 50 | 347 | 1.0 | 3.0 | 0.00 | 1.52 | 0.00 | 92 | 1010.8 |
| 20260507030803 | 50 | 352 | 1.0 | 3.0 | 0.00 | 1.52 | 0.00 | 92 | 1010.8 |
| 20260507030704 | 50 | 353 | 1.0 | 3.0 | 0.00 | 1.52 | 0.00 | 92 | 1010.7 |
| 20260507030504 | 50 | 355 | 1.0 | 3.0 | 0.00 | 1.52 | 0.00 | 92 | 1010.7 |
| 20260507030403 | 50 | 354 | 1.0 | 3.0 | 0.00 | 1.52 | 0.00 | 92 | 1010.8 |
| 20260507030303 | 50 | 353 | 1.0 | 3.0 | 0.00 | 1.52 | 0.00 | 92 | 1010.8 |
| 20260507030204 | 50 | 352 | 1.0 | 3.0 | 0.00 | 1.52 | 0.00 | 92 | 1010.7 |
| 20260507030004 | 50 | 345 | 1.0 | 3.0 | 0.00 | 1.52 | 0.00 | 92 | 1010.8 |
| 20260507025903 | 50 | 341 | 1.0 | 3.0 | 0.00 | 1.52 | 0.00 | 92 | 1010.7 |
| 20260507025804 | 50 | 339 | 2.0 | 3.0 | 0.00 | 1.52 | 0.00 | 92 | 1010.8 |
| 20260507025705 | 50 | 338 | 2.0 | 3.0 | 0.00 | 1.52 | 0.00 | 92 | 1010.8 |
| 20260507025604 | 50 | 337 | 2.0 | 3.0 | 0.00 | 1.52 | 0.00 | 92 | 1010.8 |
| 20260507025505 | 50 | 334 | 2.0 | 3.0 | 0.00 | 1.52 | 0.00 | 92 | 1010.8 |
| 20260507025403 | 50 | 337 | 2.0 | 4.0 | 0.00 | 1.52 | 0.00 | 92 | 1010.8 |
| 20260507025204 | 50 | 342 | 3.0 | 6.0 | 0.00 | 1.52 | 0.00 | 92 | 1010.8 |
| 20260507025103 | 50 | 342 | 3.0 | 6.0 | 0.00 | 1.52 | 0.00 | 92 | 1010.8 |
| 20260507025015 | 50 | 342 | 3.0 | 6.0 | 0.00 | 1.52 | 0.00 | 92 | 1010.7 |
| 20260507024903 | 50 | 343 | 3.0 | 6.0 | 0.00 | 1.52 | 0.00 | 92 | 1010.7 |
| 20260507024704 | 50 | 342 | 4.0 | 6.0 | 0.00 | 1.52 | 0.00 | 92 | 1010.8 |
| 20260507024604 | 50 | 342 | 4.0 | 6.0 | 0.00 | 1.52 | 0.00 | 92 | 1010.7 |
| 20260507024503 | 50 | 342 | 4.0 | 6.0 | 0.00 | 1.52 | 0.00 | 92 | 1010.7 |
| 20260507024403 | 50 | 340 | 4.0 | 6.0 | 0.00 | 1.52 | 0.00 | 92 | 1010.7 |
| 20260507024304 | 50 | 338 | 4.0 | 6.0 | 0.00 | 1.52 | 0.00 | 92 | 1010.7 |
| 20260507024203 | 50 | 335 | 4.0 | 6.0 | 0.00 | 1.52 | 0.00 | 92 | 1010.7 |
| 20260507024104 | 50 | 333 | 3.0 | 6.0 | 0.00 | 1.52 | 0.00 | 92 | 1010.7 |
| 20260507024005 | 50 | 331 | 3.0 | 6.0 | 0.00 | 1.52 | 0.00 | 92 | 1010.7 |
| 20260507023904 | 50 | 329 | 3.0 | 6.0 | 0.00 | 1.52 | 0.00 | 92 | 1010.7 |
| 20260507023804 | 50 | 326 | 3.0 | 5.0 | 0.00 | 1.52 | 0.00 | 92 | 1010.8 |
| 20260507023703 | 50 | 323 | 2.0 | 5.0 | 0.00 | 1.52 | 0.00 | 92 | 1010.8 |
| 20260507023603 | 50 | 321 | 2.0 | 4.0 | 0.00 | 1.52 | 0.00 | 92 | 1010.8 |
| 20260507023504 | 50 | 317 | 2.0 | 4.0 | 0.00 | 1.52 | 0.00 | 92 | 1010.7 |
| 20260507023405 | 50 | 314 | 2.0 | 3.0 | 0.00 | 1.52 | 0.00 | 92 | 1010.8 |
| 20260507023305 | 50 | 314 | 1.0 | 3.0 | 0.00 | 1.52 | 0.00 | 92 | 1010.8 |
| 20260507023204 | 50 | 313 | 1.0 | 3.0 | 0.00 | 1.52 | 0.00 | 92 | 1010.8 |
| 20260507023004 | 50 | 316 | 1.0 | 3.0 | 0.00 | 1.52 | 0.00 | 92 | 1010.7 |
| 20260507022904 | 50 | 318 | 1.0 | 3.0 | 0.00 | 1.52 | 0.00 | 92 | 1010.7 |
| 20260507022815 | 50 | 318 | 1.0 | 4.0 | 0.00 | 1.52 | 0.00 | 92 | 1010.7 |
| 20260507022704 | 50 | 320 | 1.0 | 5.0 | 0.00 | 1.52 | 0.00 | 92 | 1010.7 |
| 20260507022604 | 50 | 321 | 2.0 | 5.0 | 0.00 | 1.52 | 0.00 | 92 | 1010.7 |
| 20260507022504 | 50 | 321 | 2.0 | 5.0 | 0.00 | 1.52 | 0.00 | 92 | 1010.7 |
| 20260507022404 | 50 | 322 | 2.0 | 5.0 | 0.00 | 1.52 | 0.00 | 92 | 1010.7 |
| 20260507022306 | 50 | 322 | 3.0 | 5.0 | 0.00 | 1.52 | 0.00 | 92 | 1010.6 |
| 20260507022203 | 50 | 322 | 3.0 | 5.0 | 0.00 | 1.52 | 0.00 | 92 | 1010.7 |
| 20260507022104 | 50 | 323 | 3.0 | 5.0 | 0.00 | 1.52 | 0.00 | 92 | 1010.8 |
| 20260507022005 | 50 | 324 | 3.0 | 5.0 | 0.00 | 1.52 | 0.00 | 92 | 1010.7 |
| 20260507021904 | 50 | 325 | 3.0 | 5.0 | 0.00 | 1.52 | 0.00 | 92 | 1010.7 |
| 20260507021803 | 50 | 327 | 3.0 | 5.0 | 0.00 | 1.52 | 0.00 | 92 | 1010.7 |
| 20260507021704 | 50 | 329 | 3.0 | 5.0 | 0.00 | 1.52 | 0.00 | 92 | 1010.6 |
| 20260507021604 | 51 | 332 | 3.0 | 5.0 | 0.00 | 1.52 | 0.00 | 92 | 1010.7 |
| 20260507021504 | 50 | 333 | 3.0 | 5.0 | 0.00 | 1.52 | 0.00 | 92 | 1010.7 |
| 20260507021404 | 50 | 335 | 3.0 | 5.0 | 0.00 | 1.52 | 0.00 | 92 | 1010.6 |
| 20260507021305 | 51 | 337 | 3.0 | 4.0 | 0.00 | 1.52 | 0.00 | 92 | 1010.6 |
| 20260507021203 | 51 | 339 | 3.0 | 4.0 | 0.00 | 1.52 | 0.00 | 92 | 1010.7 |
| 20260507021103 | 51 | 341 | 3.0 | 4.0 | 0.00 | 1.52 | 0.00 | 92 | 1010.6 |
| 20260507021004 | 51 | 343 | 3.0 | 4.0 | 0.00 | 1.52 | 0.00 | 92 | 1010.7 |
| 20260507020903 | 51 | 342 | 3.0 | 4.0 | 0.00 | 1.52 | 0.00 | 92 | 1010.7 |
| 20260507020804 | 51 | 345 | 3.0 | 5.0 | 0.00 | 1.52 | 0.00 | 92 | 1010.7 |
| 20260507020704 | 51 | 345 | 3.0 | 5.0 | 0.00 | 1.52 | 0.00 | 92 | 1010.7 |
| 20260507020504 | 51 | 346 | 3.0 | 5.0 | 0.00 | 1.52 | 0.00 | 92 | 1010.7 |
| 20260507020404 | 51 | 347 | 3.0 | 5.0 | 0.00 | 1.52 | 0.00 | 92 | 1010.7 |
| 20260507020308 | 51 | 347 | 3.0 | 5.0 | 0.00 | 1.52 | 0.00 | 92 | 1010.7 |
| 20260507020204 | 51 | 348 | 3.0 | 5.0 | 0.00 | 1.52 | 0.00 | 92 | 1010.6 |
| 20260507020104 | 51 | 348 | 3.0 | 5.0 | 0.00 | 1.52 | 0.00 | 92 | 1010.6 |
| 20260507020014 | 51 | 347 | 3.0 | 5.0 | 0.00 | 1.52 | 0.00 | 92 | 1010.6 |
| 20260507015903 | 51 | 346 | 3.0 | 5.0 | 0.00 | 1.52 | 0.00 | 92 | 1010.7 |
| 20260507015803 | 51 | 345 | 3.0 | 5.0 | 0.00 | 1.52 | 0.00 | 92 | 1010.7 |
| 20260507015704 | 51 | 343 | 3.0 | 5.0 | 0.00 | 1.52 | 0.00 | 92 | 1010.7 |
| 20260507015604 | 51 | 340 | 3.0 | 5.0 | 0.00 | 1.52 | 0.00 | 92 | 1010.7 |
| 20260507015504 | 51 | 337 | 3.0 | 5.0 | 0.00 | 1.52 | 0.00 | 92 | 1010.6 |
| 20260507015104 | 51 | 326 | 3.0 | 5.0 | 0.00 | 1.52 | 0.00 | 92 | 1010.7 |
| 20260507015007 | 51 | 326 | 3.0 | 5.0 | 0.00 | 1.52 | 0.00 | 92 | 1010.6 |
| 20260507014903 | 51 | 327 | 2.0 | 5.0 | 0.00 | 1.52 | 0.00 | 92 | 1010.7 |
| 20260507014803 | 51 | 323 | 2.0 | 5.0 | 0.00 | 1.52 | 0.00 | 92 | 1010.7 |
| 20260507014504 | 51 | 326 | 1.0 | 4.0 | 0.00 | 1.52 | 0.00 | 92 | 1010.6 |
| 20260507014404 | 51 | 334 | 1.0 | 4.0 | 0.00 | 1.52 | 0.00 | 92 | 1010.6 |
| 20260507014303 | 51 | 343 | 1.0 | 3.0 | 0.00 | 1.52 | 0.00 | 92 | 1010.5 |
| 20260507014203 | 51 | 352 | 1.0 | 4.0 | 0.00 | 1.52 | 0.00 | 92 | 1010.7 |
| 20260507014004 | 51 | 348 | 2.0 | 6.0 | 0.00 | 1.52 | 0.00 | 92 | 1010.6 |
| 20260507013803 | 51 | 346 | 2.0 | 6.0 | 0.00 | 1.52 | 0.00 | 92 | 1010.5 |
| 20260507013706 | 51 | 347 | 2.0 | 6.0 | 0.00 | 1.52 | 0.00 | 92 | 1010.5 |
| 20260507013604 | 51 | 346 | 3.0 | 6.0 | 0.00 | 1.52 | 0.00 | 92 | 1010.6 |
| 20260507013414 | 51 | 345 | 3.0 | 6.0 | 0.00 | 1.52 | 0.00 | 92 | 1010.5 |
| 20260507013304 | 51 | 343 | 3.0 | 6.0 | 0.00 | 1.52 | 0.00 | 92 | 1010.5 |
| 20260507013204 | 51 | 341 | 3.0 | 6.0 | 0.00 | 1.52 | 0.00 | 92 | 1010.5 |
| 20260507013104 | 51 | 339 | 4.0 | 6.0 | 0.00 | 1.52 | 0.00 | 92 | 1010.5 |
| 20260507012804 | 51 | 332 | 3.0 | 5.0 | 0.00 | 1.52 | 0.00 | 92 | 1010.4 |
| 20260507012704 | 51 | 329 | 3.0 | 5.0 | 0.00 | 1.52 | 0.00 | 92 | 1010.5 |
| 20260507012604 | 51 | 326 | 3.0 | 5.0 | 0.00 | 1.52 | 0.00 | 92 | 1010.5 |
| 20260507012407 | 51 | 321 | 2.0 | 5.0 | 0.00 | 1.52 | 0.00 | 92 | 1010.4 |
| 20260507012306 | 51 | 320 | 2.0 | 5.0 | 0.00 | 1.52 | 0.00 | 92 | 1010.4 |
| 20260507012204 | 51 | 319 | 2.0 | 5.0 | 0.00 | 1.52 | 0.00 | 92 | 1010.4 |
| 20260507012113 | 51 | 317 | 2.0 | 5.0 | 0.00 | 1.52 | 0.00 | 91 | 1010.4 |
| 20260507011903 | 51 | 319 | 2.0 | 4.0 | 0.00 | 1.52 | 0.00 | 92 | 1010.4 |
| 20260507011803 | 51 | 322 | 2.0 | 4.0 | 0.00 | 1.52 | 0.00 | 92 | 1010.4 |
| 20260507011704 | 51 | 326 | 2.0 | 4.0 | 0.00 | 1.52 | 0.00 | 92 | 1010.3 |
| 20260507011603 | 51 | 327 | 2.0 | 4.0 | 0.00 | 1.52 | 0.00 | 92 | 1010.4 |
| 20260507011403 | 51 | 333 | 2.0 | 4.0 | 0.00 | 1.52 | 0.00 | 92 | 1010.3 |
| 20260507011304 | 51 | 334 | 2.0 | 4.0 | 0.00 | 1.52 | 0.00 | 92 | 1010.4 |
| 20260507011203 | 51 | 334 | 3.0 | 5.0 | 0.00 | 1.52 | 0.00 | 92 | 1010.4 |
| 20260507011004 | 51 | 334 | 3.0 | 5.0 | 0.00 | 1.52 | 0.00 | 91 | 1010.4 |
| 20260507010807 | 51 | 332 | 3.0 | 5.0 | 0.00 | 1.52 | 0.00 | 91 | 1010.3 |
| 20260507010704 | 51 | 330 | 3.0 | 5.0 | 0.00 | 1.52 | 0.00 | 91 | 1010.4 |
| 20260507010603 | 51 | 329 | 3.0 | 5.0 | 0.00 | 1.52 | 0.00 | 91 | 1010.5 |
| 20260507010513 | 51 | 326 | 3.0 | 5.0 | 0.00 | 1.52 | 0.00 | 92 | 1010.3 |
| 20260507010404 | 51 | 324 | 3.0 | 5.0 | 0.00 | 1.52 | 0.00 | 92 | 1010.3 |
| 20260507010304 | 51 | 322 | 3.0 | 5.0 | 0.00 | 1.52 | 0.00 | 92 | 1010.4 |
| 20260507010005 | 51 | 315 | 3.0 | 5.0 | 0.00 | 1.52 | 0.00 | 92 | 1010.3 |
| 20260507005904 | 52 | 313 | 3.0 | 5.0 | 0.00 | 1.52 | 0.00 | 92 | 1010.3 |
| 20260507005803 | 52 | 311 | 3.0 | 5.0 | 0.00 | 1.52 | 0.00 | 92 | 1010.4 |
| 20260507005711 | 52 | 309 | 3.0 | 5.0 | 0.00 | 1.52 | 0.00 | 91 | 1010.3 |
| 20260507005603 | 52 | 308 | 2.0 | 5.0 | 0.00 | 1.52 | 0.00 | 91 | 1010.3 |
| 20260507005503 | 52 | 308 | 3.0 | 5.0 | 0.00 | 1.52 | 0.00 | 91 | 1010.4 |
| 20260507005404 | 52 | 307 | 3.0 | 5.0 | 0.00 | 1.52 | 0.00 | 91 | 1010.3 |
| 20260507005305 | 52 | 306 | 3.0 | 5.0 | 0.00 | 1.52 | 0.00 | 91 | 1010.3 |
| 20260507005103 | 52 | 307 | 2.0 | 4.0 | 0.00 | 1.52 | 0.00 | 91 | 1010.1 |
| 20260507005003 | 52 | 307 | 2.0 | 4.0 | 0.00 | 1.52 | 0.00 | 91 | 1010.1 |
| 20260507004915 | 52 | 307 | 2.0 | 4.0 | 0.00 | 1.52 | 0.00 | 91 | 1010.2 |
| 20260507004803 | 52 | 307 | 2.0 | 4.0 | 0.00 | 1.52 | 0.00 | 91 | 1010.1 |
| 20260507004704 | 52 | 307 | 2.0 | 4.0 | 0.00 | 1.52 | 0.00 | 91 | 1010.2 |
| 20260507004603 | 52 | 308 | 2.0 | 4.0 | 0.00 | 1.52 | 0.00 | 91 | 1010.1 |
| 20260507004504 | 52 | 307 | 2.0 | 4.0 | 0.00 | 1.52 | 0.00 | 91 | 1010.1 |
| 20260507004403 | 52 | 308 | 1.0 | 4.0 | 0.00 | 1.52 | 0.00 | 91 | 1010.0 |
| 20260507004304 | 52 | 310 | 1.0 | 4.0 | 0.00 | 1.52 | 0.00 | 91 | 1010.0 |
| 20260507004205 | 52 | 313 | 1.0 | 4.0 | 0.00 | 1.52 | 0.00 | 91 | 1010.1 |
| 20260507004104 | 52 | 311 | 1.0 | 4.0 | 0.00 | 1.52 | 0.00 | 91 | 1010.1 |
| 20260507004003 | 52 | 312 | 1.0 | 2.0 | 0.00 | 1.52 | 0.00 | 92 | 1010.1 |
| 20260507003912 | 52 | 313 | 1.0 | 2.0 | 0.00 | 1.52 | 0.00 | 91 | 1010.1 |
| 20260507003803 | 52 | 316 | 1.0 | 2.0 | 0.00 | 1.52 | 0.00 | 91 | 1010.1 |
| 20260507003603 | 52 | 322 | 1.0 | 3.0 | 0.00 | 1.52 | 0.00 | 92 | 1010.0 |
| 20260507003504 | 52 | 327 | 1.0 | 3.0 | 0.00 | 1.52 | 0.00 | 92 | 1010.0 |
| 20260507003304 | 52 | 336 | 2.0 | 4.0 | 0.00 | 1.52 | 0.00 | 91 | 1010.0 |
| 20260507003104 | 52 | 339 | 2.0 | 4.0 | 0.00 | 1.52 | 0.00 | 91 | 1010.1 |
| 20260507002912 | 52 | 340 | 2.0 | 4.0 | 0.00 | 1.52 | 0.00 | 91 | 1010.1 |
| 20260507002804 | 52 | 341 | 2.0 | 4.0 | 0.00 | 1.52 | 0.00 | 91 | 1010.1 |
| 20260507002703 | 52 | 342 | 2.0 | 4.0 | 0.00 | 1.52 | 0.00 | 91 | 1010.1 |
| 20260507002604 | 52 | 344 | 2.0 | 4.0 | 0.00 | 1.52 | 0.00 | 91 | 1010.0 |
| 20260507002504 | 52 | 344 | 2.0 | 4.0 | 0.00 | 1.52 | 0.00 | 91 | 1010.2 |
| 20260507002306 | 52 | 338 | 2.0 | 4.0 | 0.00 | 1.52 | 0.00 | 91 | 1010.1 |
| 20260507002204 | 52 | 335 | 2.0 | 4.0 | 0.00 | 1.52 | 0.00 | 91 | 1010.1 |
| 20260507002005 | 52 | 334 | 2.0 | 3.0 | 0.00 | 1.52 | 0.00 | 91 | 1010.1 |
| 20260507001804 | 52 | 329 | 2.0 | 4.0 | 0.00 | 1.52 | 0.00 | 91 | 1010.2 |
| 20260507001704 | 52 | 326 | 2.0 | 4.0 | 0.00 | 1.52 | 0.00 | 91 | 1010.2 |
| 20260507001504 | 52 | 324 | 2.0 | 4.0 | 0.00 | 1.52 | 0.00 | 91 | 1010.2 |
| 20260507001404 | 52 | 325 | 2.0 | 4.0 | 0.00 | 1.52 | 0.00 | 91 | 1010.2 |
| 20260507001204 | 53 | 327 | 2.0 | 4.0 | 0.00 | 1.52 | 0.00 | 91 | 1010.1 |
| 20260507001104 | 53 | 327 | 2.0 | 4.0 | 0.00 | 1.52 | 0.00 | 91 | 1010.1 |
| 20260507001004 | 53 | 327 | 2.0 | 4.0 | 0.00 | 1.52 | 0.00 | 91 | 1010.1 |
| 20260507000804 | 53 | 331 | 1.0 | 3.0 | 0.00 | 1.52 | 0.00 | 91 | 1010.1 |
| 20260507000303 | 53 | 337 | 1.0 | 2.0 | 0.00 | 1.52 | 0.00 | 91 | 1010.2 |
| 20260507000205 | 53 | 337 | 0.0 | 2.0 | 0.00 | 1.52 | 0.00 | 91 | 1010.1 |
| 20260507000104 | 53 | 337 | 0.0 | 2.0 | 0.00 | 1.52 | 0.00 | 91 | 1010.1 |
| 20260507000004 | 53 | 337 | 1.0 | 2.0 | 0.00 | 1.52 | 0.00 | 91 | 1010.1 |
| 20260506235904 | 53 | 337 | 1.0 | 2.0 | 0.00 | 1.52 | 0.00 | 91 | 1010.1 |
| 20260506235804 | 53 | 337 | 1.0 | 2.0 | 0.00 | 1.52 | 0.00 | 91 | 1010.1 |
| 20260506235704 | 53 | 338 | 1.0 | 2.0 | 0.00 | 1.52 | 0.00 | 91 | 1010.2 |
| 20260506235611 | 53 | 338 | 1.0 | 2.0 | 0.00 | 1.52 | 0.00 | 91 | 1010.1 |
| 20260506235404 | 53 | 338 | 1.0 | 2.0 | 0.00 | 1.52 | 0.00 | 91 | 1010.1 |
| 20260506235104 | 53 | 338 | 1.0 | 2.0 | 0.00 | 1.52 | 0.00 | 91 | 1010.2 |
| 20260506235005 | 53 | 338 | 0.0 | 2.0 | 0.00 | 1.52 | 0.00 | 91 | 1010.1 |
| 20260506234903 | 53 | 338 | 0.0 | 2.0 | 0.00 | 1.52 | 0.00 | 91 | 1010.0 |
| 20260506234704 | 53 | 338 | 0.0 | 2.0 | 0.00 | 1.52 | 0.00 | 91 | 1010.1 |
| 20260506234611 | 53 | 337 | 0.0 | 1.0 | 0.00 | 1.52 | 0.00 | 91 | 1010.1 |
| 20260506234505 | 53 | 338 | 0.0 | 2.0 | 0.00 | 1.52 | 0.00 | 91 | 1010.1 |
| 20260506234403 | 53 | 337 | 0.0 | 3.0 | 0.00 | 1.52 | 0.00 | 91 | 1010.2 |
| 20260506234304 | 53 | 338 | 1.0 | 3.0 | 0.00 | 1.52 | 0.00 | 91 | 1010.1 |
| 20260506234203 | 53 | 337 | 1.0 | 3.0 | 0.00 | 1.52 | 0.00 | 91 | 1010.2 |
| 20260506234103 | 53 | 337 | 1.0 | 4.0 | 0.00 | 1.52 | 0.00 | 91 | 1010.2 |
| 20260506234004 | 53 | 336 | 1.0 | 4.0 | 0.00 | 1.52 | 0.00 | 91 | 1010.1 |
| 20260506233804 | 53 | 337 | 2.0 | 4.0 | 0.00 | 1.52 | 0.00 | 91 | 1010.1 |
| 20260506233704 | 53 | 335 | 2.0 | 4.0 | 0.00 | 1.52 | 0.00 | 91 | 1010.0 |
| 20260506233611 | 53 | 335 | 2.0 | 4.0 | 0.00 | 1.52 | 0.00 | 91 | 1010.1 |
| 20260506233504 | 53 | 336 | 3.0 | 4.0 | 0.00 | 1.52 | 0.00 | 91 | 1010.1 |
| 20260506233403 | 53 | 338 | 3.0 | 4.0 | 0.00 | 1.52 | 0.00 | 91 | 1010.0 |
| 20260506233303 | 53 | 339 | 3.0 | 4.0 | 0.00 | 1.52 | 0.00 | 91 | 1010.1 |
| 20260506233203 | 53 | 340 | 2.0 | 4.0 | 0.00 | 1.52 | 0.00 | 91 | 1010.1 |
| 20260506233104 | 53 | 341 | 2.0 | 4.0 | 0.00 | 1.52 | 0.00 | 91 | 1010.0 |
| 20260506233004 | 53 | 342 | 2.0 | 4.0 | 0.00 | 1.52 | 0.00 | 91 | 1010.1 |
| 20260506232904 | 53 | 340 | 2.0 | 5.0 | 0.00 | 1.52 | 0.00 | 91 | 1010.0 |
| 20260506232803 | 53 | 341 | 3.0 | 6.0 | 0.00 | 1.52 | 0.00 | 91 | 1010.0 |
| 20260506232703 | 53 | 343 | 3.0 | 6.0 | 0.00 | 1.52 | 0.00 | 91 | 1010.1 |
| 20260506232613 | 53 | 341 | 3.0 | 6.0 | 0.00 | 1.52 | 0.00 | 91 | 1010.1 |
| 20260506232504 | 53 | 341 | 3.0 | 6.0 | 0.00 | 1.52 | 0.00 | 91 | 1010.0 |
| 20260506232403 | 53 | 339 | 3.0 | 6.0 | 0.00 | 1.52 | 0.00 | 91 | 1010.0 |
| 20260506232306 | 53 | 338 | 3.0 | 6.0 | 0.00 | 1.52 | 0.00 | 91 | 1010.1 |
| 20260506232004 | 53 | 336 | 3.0 | 6.0 | 0.00 | 1.52 | 0.00 | 90 | 1010.0 |
| 20260506231904 | 53 | 338 | 3.0 | 6.0 | 0.00 | 1.52 | 0.00 | 90 | 1010.0 |
| 20260506231803 | 53 | 337 | 2.0 | 6.0 | 0.00 | 1.52 | 0.00 | 90 | 1010.0 |
| 20260506231704 | 53 | 336 | 2.0 | 6.0 | 0.00 | 1.52 | 0.00 | 90 | 1010.1 |
| 20260506231612 | 53 | 338 | 2.0 | 5.0 | 0.00 | 1.52 | 0.00 | 91 | 1009.9 |
| 20260506231504 | 53 | 338 | 1.0 | 4.0 | 0.00 | 1.52 | 0.00 | 91 | 1010.0 |
| 20260506231404 | 53 | 339 | 1.0 | 3.0 | 0.00 | 1.52 | 0.00 | 91 | 1010.0 |
| 20260506231303 | 53 | 340 | 1.0 | 3.0 | 0.00 | 1.52 | 0.00 | 91 | 1010.0 |
| 20260506231204 | 53 | 343 | 1.0 | 3.0 | 0.00 | 1.52 | 0.00 | 91 | 1010.0 |
| 20260506231103 | 53 | 352 | 1.0 | 3.0 | 0.00 | 1.52 | 0.00 | 91 | 1010.0 |
| 20260506231004 | 53 | 4 | 1.0 | 2.0 | 0.00 | 1.52 | 0.00 | 91 | 1010.0 |
| 20260506230904 | 53 | 7 | 1.0 | 2.0 | 0.00 | 1.52 | 0.00 | 91 | 1010.0 |
| 20260506230803 | 53 | 8 | 1.0 | 3.0 | 0.00 | 1.52 | 0.00 | 91 | 1010.0 |
| 20260506230611 | 53 | 4 | 1.0 | 4.0 | 0.00 | 1.52 | 0.00 | 91 | 1009.9 |
| 20260506230404 | 53 | 5 | 2.0 | 4.0 | 0.00 | 1.52 | 0.00 | 91 | 1010.0 |
| 20260506230304 | 53 | 3 | 2.0 | 4.0 | 0.00 | 1.52 | 0.00 | 91 | 1010.0 |
| 20260506230203 | 53 | 2 | 2.0 | 4.0 | 0.00 | 1.52 | 0.00 | 91 | 1009.9 |
| 20260506230104 | 53 | 357 | 2.0 | 4.0 | 0.00 | 1.52 | 0.00 | 91 | 1009.9 |
| 20260506225903 | 53 | 347 | 3.0 | 5.0 | 0.00 | 1.52 | 0.00 | 91 | 1009.8 |
| 20260506225804 | 53 | 343 | 3.0 | 5.0 | 0.00 | 1.52 | 0.00 | 91 | 1009.8 |
| 20260506225704 | 53 | 342 | 3.0 | 5.0 | 0.00 | 1.52 | 0.00 | 91 | 1009.9 |
| 20260506225611 | 53 | 339 | 3.0 | 5.0 | 0.00 | 1.52 | 0.00 | 91 | 1009.9 |
| 20260506225503 | 53 | 336 | 3.0 | 5.0 | 0.00 | 1.52 | 0.00 | 91 | 1009.8 |
| 20260506225305 | 53 | 329 | 3.0 | 5.0 | 0.00 | 1.52 | 0.00 | 91 | 1010.0 |
| 20260506225204 | 53 | 326 | 3.0 | 5.0 | 0.00 | 1.52 | 0.00 | 91 | 1009.9 |
| 20260506225103 | 53 | 326 | 3.0 | 5.0 | 0.00 | 1.52 | 0.00 | 91 | 1009.9 |
| 20260506225004 | 53 | 326 | 2.0 | 5.0 | 0.00 | 1.52 | 0.00 | 91 | 1010.0 |
| 20260506224903 | 53 | 326 | 2.0 | 4.0 | 0.00 | 1.52 | 0.00 | 91 | 1010.0 |
| 20260506224804 | 53 | 325 | 1.0 | 4.0 | 0.00 | 1.52 | 0.00 | 91 | 1010.1 |
| 20260506224703 | 53 | 324 | 1.0 | 4.0 | 0.00 | 1.52 | 0.00 | 91 | 1010.1 |
| 20260506224611 | 53 | 319 | 1.0 | 4.0 | 0.00 | 1.52 | 0.00 | 91 | 1010.1 |
| 20260506224503 | 53 | 317 | 1.0 | 4.0 | 0.00 | 1.52 | 0.00 | 91 | 1010.1 |
| 20260506224404 | 53 | 324 | 1.0 | 4.0 | 0.00 | 1.52 | 0.00 | 91 | 1010.2 |
| 20260506224304 | 53 | 332 | 1.0 | 4.0 | 0.00 | 1.52 | 0.00 | 91 | 1010.1 |
| 20260506224203 | 53 | 337 | 1.0 | 4.0 | 0.00 | 1.52 | 0.00 | 91 | 1010.2 |
| 20260506224103 | 53 | 337 | 2.0 | 4.0 | 0.00 | 1.52 | 0.00 | 91 | 1010.1 |
| 20260506224004 | 53 | 340 | 2.0 | 5.0 | 0.00 | 1.52 | 0.00 | 91 | 1010.1 |
| 20260506223903 | 53 | 342 | 3.0 | 6.0 | 0.00 | 1.52 | 0.00 | 90 | 1010.1 |
| 20260506223804 | 53 | 343 | 3.0 | 6.0 | 0.00 | 1.52 | 0.00 | 91 | 1010.0 |
| 20260506223703 | 53 | 346 | 3.0 | 6.0 | 0.00 | 1.52 | 0.00 | 91 | 1010.0 |
| 20260506223403 | 53 | 351 | 4.0 | 6.0 | 0.00 | 1.52 | 0.00 | 91 | 1009.9 |
| 20260506223303 | 53 | 352 | 4.0 | 6.0 | 0.00 | 1.52 | 0.00 | 91 | 1009.9 |
| 20260506223203 | 53 | 352 | 4.0 | 6.0 | 0.00 | 1.52 | 0.00 | 91 | 1010.0 |
| 20260506223104 | 53 | 352 | 4.0 | 6.0 | 0.00 | 1.52 | 0.00 | 91 | 1010.0 |
| 20260506222903 | 53 | 350 | 3.0 | 6.0 | 0.00 | 1.52 | 0.00 | 91 | 1010.0 |
| 20260506222804 | 53 | 351 | 3.0 | 6.0 | 0.00 | 1.52 | 0.00 | 91 | 1010.0 |
| 20260506222703 | 53 | 349 | 3.0 | 5.0 | 0.00 | 1.52 | 0.00 | 91 | 1009.9 |
| 20260506222603 | 53 | 348 | 3.0 | 5.0 | 0.00 | 1.52 | 0.00 | 91 | 1009.9 |
| 20260506222404 | 53 | 346 | 3.0 | 5.0 | 0.00 | 1.52 | 0.00 | 91 | 1009.9 |
| 20260506222203 | 53 | 346 | 3.0 | 5.0 | 0.00 | 1.52 | 0.00 | 91 | 1009.9 |
| 20260506221904 | 53 | 340 | 3.0 | 5.0 | 0.00 | 1.52 | 0.00 | 91 | 1009.7 |
| 20260506221803 | 53 | 339 | 3.0 | 5.0 | 0.00 | 1.52 | 0.00 | 91 | 1009.7 |
| 20260506221703 | 53 | 338 | 3.0 | 5.0 | 0.00 | 1.52 | 0.00 | 91 | 1009.7 |
| 20260506221603 | 53 | 339 | 3.0 | 5.0 | 0.00 | 1.52 | 0.00 | 91 | 1009.7 |
| 20260506221504 | 53 | 338 | 3.0 | 5.0 | 0.00 | 1.52 | 0.00 | 91 | 1009.8 |
| 20260506221404 | 53 | 340 | 3.0 | 4.0 | 0.00 | 1.52 | 0.00 | 91 | 1009.7 |
| 20260506221303 | 53 | 339 | 3.0 | 4.0 | 0.00 | 1.52 | 0.00 | 91 | 1009.8 |
| 20260506221204 | 53 | 339 | 3.0 | 4.0 | 0.00 | 1.52 | 0.00 | 91 | 1009.8 |
| 20260506221104 | 53 | 340 | 3.0 | 4.0 | 0.00 | 1.52 | 0.00 | 91 | 1009.8 |
| 20260506221013 | 53 | 341 | 3.0 | 4.0 | 0.00 | 1.52 | 0.00 | 91 | 1009.8 |
| 20260506220904 | 53 | 342 | 3.0 | 4.0 | 0.00 | 1.52 | 0.00 | 91 | 1009.8 |
| 20260506220804 | 53 | 342 | 3.0 | 4.0 | 0.00 | 1.52 | 0.00 | 91 | 1009.8 |
| 20260506220704 | 53 | 339 | 2.0 | 4.0 | 0.00 | 1.52 | 0.00 | 91 | 1009.8 |
| 20260506220603 | 53 | 336 | 2.0 | 4.0 | 0.00 | 1.52 | 0.00 | 91 | 1009.7 |
| 20260506220504 | 53 | 334 | 2.0 | 4.0 | 0.00 | 1.52 | 0.00 | 90 | 1009.7 |
| 20260506220403 | 53 | 329 | 2.0 | 4.0 | 0.00 | 1.52 | 0.00 | 90 | 1009.7 |
| 20260506220303 | 53 | 324 | 2.0 | 4.0 | 0.00 | 1.52 | 0.00 | 90 | 1009.6 |
| 20260506220203 | 53 | 319 | 1.0 | 4.0 | 0.00 | 1.52 | 0.00 | 91 | 1009.7 |
| 20260506220103 | 53 | 308 | 1.0 | 3.0 | 0.00 | 1.52 | 0.00 | 91 | 1009.6 |
| 20260506220006 | 53 | 298 | 1.0 | 3.0 | 0.00 | 1.52 | 0.00 | 90 | 1009.6 |
| 20260506215804 | 53 | 276 | 1.0 | 3.0 | 0.00 | 1.52 | 1.52 | 90 | 1009.6 |
| 20260506215704 | 53 | 272 | 1.0 | 3.0 | 0.00 | 1.52 | 1.52 | 91 | 1009.5 |
| 20260506215604 | 53 | 276 | 1.0 | 3.0 | 0.00 | 1.52 | 1.52 | 91 | 1009.6 |
| 20260506215504 | 53 | 283 | 1.0 | 3.0 | 0.00 | 1.52 | 1.52 | 91 | 1009.6 |
| 20260506215413 | 53 | 289 | 1.0 | 3.0 | 0.00 | 1.52 | 1.52 | 91 | 1009.7 |
| 20260506215306 | 53 | 298 | 1.0 | 3.0 | 0.00 | 1.52 | 1.52 | 91 | 1009.7 |
| 20260506215203 | 53 | 301 | 1.0 | 3.0 | 0.00 | 1.52 | 1.52 | 91 | 1009.7 |
| 20260506215103 | 53 | 305 | 1.0 | 3.0 | 0.00 | 1.52 | 1.52 | 91 | 1009.7 |
| 20260506215004 | 53 | 311 | 2.0 | 3.0 | 0.00 | 1.52 | 1.52 | 91 | 1009.6 |
| 20260506214904 | 53 | 315 | 2.0 | 3.0 | 0.00 | 1.52 | 1.52 | 91 | 1009.7 |
| 20260506214803 | 53 | 321 | 2.0 | 3.0 | 0.00 | 1.52 | 1.52 | 91 | 1009.7 |
| 20260506214703 | 53 | 326 | 2.0 | 3.0 | 0.00 | 1.52 | 1.52 | 91 | 1009.7 |
| 20260506214604 | 53 | 326 | 2.0 | 3.0 | 0.00 | 1.52 | 1.52 | 91 | 1009.6 |
| 20260506214504 | 53 | 327 | 2.0 | 3.0 | 0.00 | 1.52 | 1.52 | 91 | 1009.6 |
| 20260506214412 | 53 | 327 | 2.0 | 3.0 | 0.00 | 1.52 | 1.52 | 91 | 1009.6 |
| 20260506214304 | 53 | 330 | 2.0 | 3.0 | 0.00 | 1.52 | 1.52 | 91 | 1009.6 |
| 20260506214204 | 53 | 335 | 2.0 | 3.0 | 0.00 | 1.52 | 1.52 | 91 | 1009.5 |
| 20260506214104 | 53 | 336 | 2.0 | 3.0 | 0.00 | 1.52 | 1.52 | 91 | 1009.6 |
| 20260506213903 | 53 | 338 | 1.0 | 3.0 | 0.00 | 1.52 | 1.52 | 91 | 1009.6 |
| 20260506213803 | 53 | 340 | 1.0 | 3.0 | 0.00 | 1.52 | 1.52 | 91 | 1009.5 |
| 20260506213703 | 53 | 345 | 1.0 | 3.0 | 0.00 | 1.52 | 1.52 | 91 | 1009.5 |
| 20260506213603 | 53 | 348 | 1.0 | 3.0 | 0.00 | 1.52 | 1.52 | 91 | 1009.5 |
| 20260506213504 | 53 | 351 | 1.0 | 3.0 | 0.00 | 1.52 | 1.52 | 91 | 1009.5 |
| 20260506213411 | 53 | 353 | 1.0 | 4.0 | 0.00 | 1.52 | 1.52 | 90 | 1009.5 |
| 20260506213203 | 53 | 346 | 2.0 | 5.0 | 0.00 | 1.52 | 1.52 | 91 | 1009.6 |
| 20260506213104 | 53 | 345 | 2.0 | 5.0 | 0.00 | 1.52 | 1.52 | 91 | 1009.6 |
| 20260506213004 | 53 | 345 | 2.0 | 5.0 | 0.00 | 1.52 | 1.52 | 91 | 1009.6 |
| 20260506212803 | 53 | 342 | 3.0 | 5.0 | 0.00 | 1.52 | 1.52 | 91 | 1009.5 |
| 20260506212703 | 53 | 339 | 3.0 | 5.0 | 0.00 | 1.52 | 1.52 | 91 | 1009.6 |
| 20260506212603 | 53 | 337 | 3.0 | 5.0 | 0.00 | 1.52 | 1.52 | 91 | 1009.6 |
| 20260506212505 | 53 | 336 | 3.0 | 5.0 | 0.00 | 1.52 | 1.52 | 90 | 1009.6 |
| 20260506212410 | 53 | 336 | 3.0 | 5.0 | 0.00 | 1.52 | 1.52 | 90 | 1009.5 |
| 20260506212306 | 53 | 337 | 3.0 | 5.0 | 0.00 | 1.52 | 1.52 | 90 | 1009.5 |
| 20260506212104 | 53 | 335 | 2.0 | 5.0 | 0.00 | 1.52 | 1.52 | 90 | 1009.6 |
| 20260506211903 | 53 | 333 | 2.0 | 5.0 | 0.00 | 1.52 | 1.52 | 90 | 1009.7 |
| 20260506211804 | 53 | 332 | 2.0 | 5.0 | 0.00 | 1.52 | 1.52 | 90 | 1009.5 |
| 20260506211703 | 53 | 332 | 2.0 | 4.0 | 0.00 | 1.52 | 1.52 | 90 | 1009.5 |
| 20260506211604 | 54 | 331 | 1.0 | 4.0 | 0.00 | 1.52 | 1.52 | 90 | 1009.5 |
| 20260506211504 | 54 | 327 | 2.0 | 4.0 | 0.00 | 1.52 | 1.52 | 90 | 1009.5 |
| 20260506211203 | 53 | 321 | 2.0 | 4.0 | 0.00 | 1.52 | 1.52 | 90 | 1009.6 |
| 20260506211103 | 53 | 320 | 2.0 | 4.0 | 0.00 | 1.52 | 1.52 | 90 | 1009.6 |
| 20260506211004 | 53 | 318 | 2.0 | 4.0 | 0.00 | 1.52 | 1.52 | 90 | 1009.5 |
| 20260506210904 | 53 | 320 | 2.0 | 4.0 | 0.00 | 1.52 | 1.52 | 90 | 1009.5 |
| 20260506210803 | 53 | 323 | 1.0 | 4.0 | 0.00 | 1.52 | 1.52 | 90 | 1009.5 |
| 20260506210603 | 54 | 339 | 1.0 | 5.0 | 0.00 | 1.52 | 1.52 | 90 | 1009.5 |
| 20260506210504 | 54 | 349 | 1.0 | 5.0 | 0.00 | 1.52 | 1.52 | 91 | 1009.5 |
| 20260506210303 | 54 | 356 | 2.0 | 6.0 | 0.00 | 1.52 | 1.52 | 91 | 1009.6 |
| 20260506210204 | 54 | 356 | 2.0 | 7.0 | 0.00 | 1.52 | 1.52 | 91 | 1009.6 |
| 20260506210104 | 54 | 355 | 3.0 | 7.0 | 0.00 | 1.52 | 1.52 | 90 | 1009.6 |
| 20260506205904 | 54 | 353 | 4.0 | 8.0 | 0.00 | 1.52 | 1.52 | 90 | 1009.6 |
| 20260506205604 | 54 | 352 | 5.0 | 8.0 | 0.00 | 1.52 | 1.52 | 90 | 1009.7 |
| 20260506205410 | 54 | 352 | 5.0 | 9.0 | 0.00 | 1.52 | 1.52 | 90 | 1009.7 |
| 20260506205306 | 54 | 354 | 6.0 | 9.0 | 0.00 | 1.52 | 1.52 | 90 | 1009.7 |
| 20260506205204 | 54 | 354 | 6.0 | 9.0 | 0.00 | 1.52 | 1.52 | 91 | 1009.7 |
| 20260506205003 | 54 | 356 | 6.0 | 9.0 | 0.00 | 1.52 | 1.52 | 91 | 1009.7 |
| 20260506204904 | 54 | 356 | 5.0 | 9.0 | 0.00 | 1.52 | 1.52 | 90 | 1009.7 |
| 20260506204605 | 54 | 356 | 5.0 | 9.0 | 0.00 | 1.52 | 1.52 | 90 | 1009.7 |
| 20260506204504 | 54 | 357 | 4.0 | 9.0 | 0.00 | 1.52 | 1.52 | 90 | 1009.6 |
| 20260506204413 | 54 | 357 | 4.0 | 8.0 | 0.00 | 1.52 | 1.52 | 90 | 1009.6 |
| 20260506204205 | 54 | 353 | 3.0 | 8.0 | 0.00 | 1.52 | 1.52 | 90 | 1009.6 |
| 20260506204104 | 54 | 350 | 3.0 | 6.0 | 0.00 | 1.52 | 1.52 | 90 | 1009.7 |
| 20260506204004 | 54 | 346 | 3.0 | 6.0 | 0.00 | 1.52 | 1.52 | 90 | 1009.7 |
| 20260506203903 | 54 | 342 | 2.0 | 6.0 | 0.00 | 1.52 | 1.52 | 90 | 1009.7 |
| 20260506203805 | 54 | 342 | 2.0 | 6.0 | 0.00 | 1.52 | 1.52 | 90 | 1009.7 |
| 20260506203503 | 54 | 321 | 1.0 | 3.0 | 0.00 | 1.52 | 1.52 | 90 | 1009.6 |
| 20260506203410 | 54 | 319 | 1.0 | 2.0 | 0.00 | 1.52 | 1.52 | 90 | 1009.6 |
| 20260506203304 | 54 | 322 | 1.0 | 2.0 | 0.00 | 1.52 | 1.52 | 90 | 1009.5 |
| 20260506203203 | 54 | 331 | 1.0 | 2.0 | 0.00 | 1.52 | 1.52 | 90 | 1009.4 |
| 20260506203103 | 54 | 15 | 0.0 | 2.0 | 0.00 | 1.52 | 1.52 | 90 | 1009.5 |
| 20260506203003 | 54 | 94 | 0.0 | 2.0 | 0.00 | 1.52 | 1.52 | 90 | 1009.4 |
| 20260506202904 | 54 | 118 | 0.0 | 2.0 | 0.01 | 1.52 | 1.52 | 90 | 1009.5 |
| 20260506202803 | 54 | 124 | 0.0 | 2.0 | 0.01 | 1.52 | 1.52 | 90 | 1009.4 |
| 20260506202703 | 54 | 130 | 0.0 | 2.0 | 0.01 | 1.52 | 1.52 | 90 | 1009.3 |
| 20260506202605 | 54 | 131 | 0.0 | 2.0 | 0.01 | 1.52 | 1.52 | 90 | 1009.4 |
| 20260506202504 | 54 | 132 | 0.0 | 2.0 | 0.01 | 1.52 | 1.52 | 90 | 1009.4 |
| 20260506202306 | 54 | 133 | 0.0 | 2.0 | 0.01 | 1.52 | 1.52 | 90 | 1009.3 |
| 20260506202203 | 54 | 136 | 0.0 | 3.0 | 0.01 | 1.52 | 1.52 | 90 | 1009.4 |
| 20260506202103 | 54 | 141 | 0.0 | 3.0 | 0.01 | 1.52 | 1.52 | 90 | 1009.3 |
| 20260506202004 | 54 | 144 | 0.0 | 3.0 | 0.01 | 1.52 | 1.52 | 89 | 1009.3 |
| 20260506201804 | 54 | 152 | 0.0 | 3.0 | 0.01 | 1.52 | 1.52 | 90 | 1009.3 |
| 20260506201703 | 54 | 159 | 0.0 | 3.0 | 0.01 | 1.52 | 1.52 | 89 | 1009.2 |
| 20260506201603 | 54 | 162 | 0.0 | 3.0 | 0.01 | 1.52 | 1.52 | 90 | 1009.2 |
| 20260506201504 | 54 | 168 | 0.0 | 3.0 | 0.01 | 1.52 | 1.52 | 90 | 1009.2 |
| 20260506201412 | 54 | 170 | 0.0 | 3.0 | 0.01 | 1.52 | 1.52 | 90 | 1009.1 |
| 20260506201204 | 54 | 209 | 0.0 | 2.0 | 0.02 | 1.52 | 1.52 | 90 | 1009.2 |
| 20260506201104 | 54 | 227 | 0.0 | 2.0 | 0.02 | 1.52 | 1.52 | 90 | 1009.2 |
| 20260506201003 | 54 | 227 | 0.0 | 2.0 | 0.02 | 1.52 | 1.52 | 89 | 1009.1 |
| 20260506200905 | 54 | 273 | 0.0 | 1.0 | 0.02 | 1.56 | 1.52 | 90 | 1009.1 |
| 20260506200804 | 54 | 276 | 0.0 | 1.0 | 0.02 | 1.56 | 1.52 | 90 | 1009.1 |
| 20260506200704 | 54 | 276 | 0.0 | 1.0 | 0.02 | 1.56 | 1.52 | 90 | 1009.1 |
| 20260506200604 | 54 | 276 | 0.0 | 1.0 | 0.02 | 1.56 | 1.52 | 90 | 1009.1 |
| 20260506200503 | 54 | 276 | 0.0 | 2.0 | 0.02 | 1.56 | 1.52 | 90 | 1009.1 |
| 20260506200410 | 54 | 276 | 0.0 | 2.0 | 0.02 | 1.56 | 1.52 | 90 | 1009.1 |
| 20260506200304 | 54 | 279 | 0.0 | 2.0 | 0.02 | 1.56 | 1.52 | 89 | 1009.2 |
| 20260506200205 | 54 | 280 | 0.0 | 2.0 | 0.02 | 1.56 | 1.52 | 89 | 1009.0 |
| 20260506200103 | 54 | 285 | 1.0 | 3.0 | 0.02 | 1.56 | 1.52 | 89 | 1009.1 |
| 20260506200004 | 54 | 286 | 1.0 | 3.0 | 0.02 | 1.56 | 1.52 | 89 | 1009.0 |
| 20260506195903 | 54 | 289 | 1.0 | 3.0 | 0.02 | 1.56 | 1.52 | 89 | 1009.0 |
| 20260506195804 | 54 | 296 | 1.0 | 4.0 | 0.03 | 1.56 | 1.52 | 90 | 1009.0 |
| 20260506195704 | 54 | 300 | 1.0 | 4.0 | 0.03 | 1.56 | 1.52 | 89 | 1009.0 |
| 20260506195605 | 54 | 304 | 1.0 | 4.0 | 0.03 | 1.56 | 1.52 | 89 | 1009.0 |
| 20260506195503 | 54 | 310 | 1.0 | 4.0 | 0.04 | 1.56 | 1.52 | 89 | 1008.9 |
| 20260506195410 | 54 | 313 | 2.0 | 4.0 | 0.04 | 1.56 | 1.52 | 89 | 1008.9 |
| 20260506195306 | 54 | 316 | 2.0 | 4.0 | 0.04 | 1.56 | 1.52 | 89 | 1009.0 |
| 20260506195203 | 54 | 318 | 2.0 | 4.0 | 0.04 | 1.56 | 1.52 | 89 | 1008.9 |
| 20260506195103 | 54 | 321 | 2.0 | 4.0 | 0.04 | 1.56 | 1.52 | 89 | 1009.0 |
| 20260506195004 | 54 | 324 | 2.0 | 4.0 | 0.05 | 1.56 | 1.52 | 89 | 1008.9 |
| 20260506194905 | 54 | 326 | 2.0 | 4.0 | 0.05 | 1.56 | 1.52 | 90 | 1008.9 |
| 20260506194705 | 54 | 329 | 1.0 | 3.0 | 0.05 | 1.56 | 1.52 | 90 | 1008.9 |
| 20260506194603 | 54 | 331 | 1.0 | 3.0 | 0.06 | 1.56 | 1.52 | 90 | 1008.7 |
| 20260506194503 | 54 | 335 | 1.0 | 3.0 | 0.06 | 1.56 | 1.52 | 90 | 1008.8 |
| 20260506194204 | 54 | 339 | 1.0 | 3.0 | 0.06 | 1.56 | 1.52 | 89 | 1008.8 |
| 20260506194004 | 54 | 344 | 1.0 | 3.0 | 0.06 | 1.56 | 1.52 | 89 | 1008.8 |
| 20260506193710 | 54 | 349 | 1.0 | 3.0 | 0.06 | 1.56 | 1.52 | 89 | 1008.8 |
| 20260506193504 | 54 | 349 | 1.0 | 3.0 | 0.07 | 1.56 | 1.52 | 89 | 1008.7 |
| 20260506193404 | 54 | 351 | 1.0 | 3.0 | 0.08 | 1.56 | 1.52 | 89 | 1008.8 |
| 20260506193303 | 54 | 354 | 1.0 | 3.0 | 0.08 | 1.56 | 1.52 | 89 | 1008.7 |
| 20260506193204 | 54 | 358 | 1.0 | 3.0 | 0.09 | 1.56 | 1.52 | 89 | 1008.7 |
| 20260506193103 | 54 | 1 | 0.0 | 3.0 | 0.09 | 1.56 | 1.52 | 89 | 1008.6 |
| 20260506193004 | 54 | 350 | 0.0 | 2.0 | 0.10 | 1.56 | 1.52 | 89 | 1008.7 |
| 20260506192504 | 55 | 338 | 1.0 | 3.0 | 0.11 | 1.55 | 1.51 | 89 | 1008.7 |
| 20260506192403 | 55 | 337 | 1.0 | 3.0 | 0.11 | 1.55 | 1.51 | 88 | 1008.5 |
| 20260506192305 | 55 | 336 | 1.0 | 3.0 | 0.12 | 1.55 | 1.51 | 88 | 1008.6 |
| 20260506192104 | 55 | 334 | 1.0 | 3.0 | 0.12 | 1.55 | 1.51 | 88 | 1008.5 |
| 20260506192003 | 55 | 335 | 1.0 | 3.0 | 0.12 | 1.55 | 1.51 | 88 | 1008.5 |
| 20260506191904 | 55 | 335 | 1.0 | 3.0 | 0.12 | 1.55 | 1.51 | 88 | 1008.4 |
| 20260506191804 | 55 | 333 | 1.0 | 3.0 | 0.12 | 1.55 | 1.51 | 88 | 1008.3 |
| 20260506191710 | 55 | 330 | 1.0 | 3.0 | 0.12 | 1.55 | 1.51 | 88 | 1008.4 |
| 20260506191603 | 55 | 327 | 1.0 | 3.0 | 0.12 | 1.55 | 1.51 | 87 | 1008.3 |
| 20260506191504 | 55 | 323 | 1.0 | 3.0 | 0.12 | 1.55 | 1.51 | 87 | 1008.4 |
| 20260506191404 | 55 | 319 | 1.0 | 3.0 | 0.12 | 1.55 | 1.51 | 87 | 1008.4 |
| 20260506191304 | 55 | 309 | 1.0 | 3.0 | 0.12 | 1.55 | 1.51 | 87 | 1008.4 |
| 20260506191204 | 55 | 288 | 1.0 | 4.0 | 0.11 | 1.54 | 1.50 | 87 | 1008.3 |
| 20260506191004 | 55 | 256 | 2.0 | 4.0 | 0.11 | 1.54 | 1.50 | 86 | 1008.4 |
| 20260506190904 | 55 | 240 | 2.0 | 6.0 | 0.11 | 1.54 | 1.50 | 86 | 1008.4 |
| 20260506190803 | 55 | 227 | 2.0 | 6.0 | 0.11 | 1.54 | 1.50 | 86 | 1008.3 |
| 20260506190711 | 55 | 218 | 3.0 | 6.0 | 0.11 | 1.54 | 1.50 | 86 | 1008.3 |
| 20260506190603 | 55 | 211 | 3.0 | 6.0 | 0.11 | 1.54 | 1.50 | 85 | 1008.2 |
| 20260506190503 | 55 | 208 | 3.0 | 6.0 | 0.11 | 1.54 | 1.50 | 85 | 1008.4 |
| 20260506190403 | 55 | 206 | 4.0 | 6.0 | 0.10 | 1.54 | 1.50 | 85 | 1008.3 |
| 20260506190304 | 55 | 204 | 4.0 | 6.0 | 0.10 | 1.54 | 1.50 | 85 | 1008.2 |
| 20260506190204 | 55 | 203 | 4.0 | 7.0 | 0.10 | 1.54 | 1.50 | 84 | 1008.2 |
| 20260506190007 | 55 | 202 | 5.0 | 7.0 | 0.10 | 1.54 | 1.50 | 84 | 1008.2 |
| 20260506185903 | 55 | 200 | 5.0 | 7.0 | 0.09 | 1.53 | 1.49 | 84 | 1008.2 |
| 20260506185804 | 55 | 200 | 4.0 | 7.0 | 0.09 | 1.53 | 1.49 | 84 | 1008.2 |
| 20260506185714 | 55 | 199 | 4.0 | 7.0 | 0.09 | 1.53 | 1.49 | 84 | 1008.1 |
| 20260506185603 | 55 | 198 | 4.0 | 7.0 | 0.09 | 1.52 | 1.48 | 84 | 1008.1 |
| 20260506185505 | 55 | 198 | 4.0 | 7.0 | 0.09 | 1.52 | 1.48 | 83 | 1008.2 |
| 20260506185403 | 55 | 198 | 4.0 | 7.0 | 0.09 | 1.52 | 1.48 | 83 | 1008.2 |
| 20260506185306 | 55 | 199 | 3.0 | 7.0 | 0.09 | 1.52 | 1.48 | 83 | 1008.1 |
| 20260506185203 | 56 | 197 | 3.0 | 6.0 | 0.09 | 1.52 | 1.48 | 82 | 1008.0 |
| 20260506185104 | 56 | 197 | 3.0 | 6.0 | 0.09 | 1.52 | 1.48 | 82 | 1008.0 |
| 20260506185009 | 56 | 196 | 2.0 | 6.0 | 0.08 | 1.51 | 1.47 | 82 | 1008.1 |
| 20260506184903 | 56 | 197 | 2.0 | 5.0 | 0.08 | 1.51 | 1.47 | 82 | 1008.0 |
| 20260506184803 | 56 | 197 | 1.0 | 4.0 | 0.08 | 1.51 | 1.47 | 82 | 1008.0 |
| 20260506184703 | 56 | 199 | 1.0 | 4.0 | 0.08 | 1.51 | 1.47 | 82 | 1008.0 |
| 20260506184603 | 56 | 203 | 1.0 | 4.0 | 0.07 | 1.50 | 1.46 | 81 | 1008.0 |
| 20260506184504 | 56 | 213 | 1.0 | 4.0 | 0.07 | 1.50 | 1.46 | 81 | 1007.8 |
| 20260506184203 | 57 | 229 | 1.0 | 4.0 | 0.07 | 1.50 | 1.46 | 81 | 1007.7 |
| 20260506184105 | 57 | 234 | 1.0 | 4.0 | 0.06 | 1.50 | 1.46 | 80 | 1007.7 |
| 20260506184010 | 57 | 239 | 1.0 | 4.0 | 0.06 | 1.50 | 1.46 | 79 | 1007.8 |
| 20260506183903 | 57 | 235 | 1.0 | 4.0 | 0.06 | 1.50 | 1.46 | 79 | 1007.7 |
| 20260506183803 | 57 | 228 | 1.0 | 4.0 | 0.06 | 1.50 | 1.46 | 79 | 1007.6 |
| 20260506183704 | 57 | 215 | 1.0 | 4.0 | 0.06 | 1.49 | 1.45 | 78 | 1007.7 |
| 20260506183603 | 57 | 209 | 1.0 | 4.0 | 0.06 | 1.49 | 1.45 | 78 | 1007.7 |
| 20260506183503 | 57 | 206 | 1.0 | 3.0 | 0.05 | 1.48 | 1.44 | 77 | 1007.6 |
| 20260506183405 | 58 | 209 | 1.0 | 3.0 | 0.05 | 1.48 | 1.44 | 77 | 1007.4 |
| 20260506183303 | 58 | 211 | 1.0 | 3.0 | 0.04 | 1.47 | 1.43 | 77 | 1007.5 |
| 20260506183203 | 58 | 214 | 1.0 | 3.0 | 0.04 | 1.47 | 1.43 | 76 | 1007.5 |
| 20260506183012 | 58 | 222 | 1.0 | 3.0 | 0.02 | 1.46 | 1.42 | 76 | 1007.3 |
| 20260506182903 | 58 | 236 | 2.0 | 4.0 | 0.02 | 1.46 | 1.42 | 75 | 1007.4 |
| 20260506182703 | 58 | 266 | 2.0 | 4.0 | 0.01 | 1.44 | 1.40 | 75 | 1007.2 |
| 20260506182604 | 58 | 281 | 1.0 | 4.0 | 0.01 | 1.44 | 1.40 | 74 | 1007.3 |
| 20260506182503 | 58 | 286 | 1.0 | 4.0 | 0.01 | 1.44 | 1.40 | 74 | 1007.3 |
| 20260506182403 | 58 | 287 | 1.0 | 4.0 | 0.01 | 1.44 | 1.40 | 74 | 1007.2 |
| 20260506182203 | 58 | 284 | 1.0 | 4.0 | 0.00 | 1.43 | 1.39 | 75 | 1007.2 |
| 20260506182104 | 58 | 300 | 1.0 | 4.0 | 0.00 | 1.43 | 1.39 | 75 | 1007.1 |
| 20260506181806 | 58 | 326 | 2.0 | 5.0 | 0.00 | 1.43 | 1.39 | 75 | 1007.2 |
| 20260506181707 | 58 | 323 | 2.0 | 5.0 | 0.00 | 1.43 | 1.39 | 74 | 1007.1 |
| 20260506181607 | 58 | 324 | 2.0 | 7.0 | 0.00 | 1.43 | 1.39 | 74 | 1007.1 |
| 20260506181406 | 58 | 324 | 2.0 | 7.0 | 0.00 | 1.43 | 1.39 | 74 | 1007.1 |
| 20260506181314 | 58 | 329 | 2.0 | 7.0 | 0.00 | 1.43 | 1.39 | 74 | 1007.2 |
| 20260506181207 | 58 | 331 | 3.0 | 7.0 | 0.00 | 1.43 | 1.39 | 74 | 1007.1 |
| 20260506181107 | 58 | 328 | 3.0 | 7.0 | 0.00 | 1.43 | 1.39 | 73 | 1007.1 |
| 20260506180907 | 58 | 325 | 3.0 | 7.0 | 0.00 | 1.43 | 1.39 | 73 | 1007.1 |
| 20260506180807 | 58 | 326 | 3.0 | 7.0 | 0.00 | 1.43 | 1.39 | 73 | 1007.1 |
| 20260506180707 | 58 | 327 | 3.0 | 7.0 | 0.00 | 1.43 | 1.39 | 73 | 1007.1 |
| 20260506180610 | 58 | 333 | 3.0 | 6.0 | 0.00 | 1.43 | 1.39 | 73 | 1007.1 |
| 20260506180408 | 58 | 340 | 3.0 | 7.0 | 0.00 | 1.43 | 1.39 | 73 | 1007.1 |
| 20260506180320 | 58 | 350 | 3.0 | 7.0 | 0.00 | 1.43 | 1.39 | 73 | 1007.0 |
| 20260506180207 | 58 | 13 | 3.0 | 7.0 | 0.00 | 1.43 | 1.39 | 72 | 1007.1 |
| 20260506180107 | 58 | 42 | 3.0 | 7.0 | 0.00 | 1.43 | 1.39 | 72 | 1007.1 |
| 20260506180007 | 58 | 61 | 3.0 | 7.0 | 0.00 | 1.43 | 1.39 | 72 | 1007.1 |
| 20260506175908 | 58 | 73 | 2.0 | 7.0 | 0.00 | 1.43 | 1.39 | 72 | 1007.0 |
| 20260506175808 | 58 | 77 | 2.0 | 7.0 | 0.00 | 1.43 | 1.39 | 72 | 1007.0 |
| 20260506175708 | 58 | 87 | 2.0 | 7.0 | 0.00 | 1.43 | 1.39 | 72 | 1006.9 |
| 20260506175608 | 58 | 92 | 2.0 | 7.0 | 0.00 | 1.43 | 1.39 | 72 | 1006.9 |
| 20260506175508 | 58 | 95 | 3.0 | 7.0 | 0.00 | 1.43 | 1.39 | 72 | 1006.9 |
| 20260506175407 | 58 | 89 | 3.0 | 8.0 | 0.00 | 1.43 | 1.39 | 72 | 1006.8 |
| 20260506175316 | 58 | 85 | 3.0 | 8.0 | 0.00 | 1.43 | 1.39 | 72 | 1006.8 |
| 20260506175007 | 58 | 63 | 3.0 | 8.0 | 0.00 | 1.43 | 1.39 | 72 | 1006.7 |
| 20260506174907 | 58 | 63 | 4.0 | 8.0 | 0.00 | 1.47 | 1.39 | 72 | 1006.7 |
| 20260506174607 | 58 | 50 | 4.0 | 8.0 | 0.00 | 1.47 | 1.39 | 72 | 1006.7 |
| 20260506174408 | 58 | 37 | 3.0 | 8.0 | 0.00 | 1.47 | 1.39 | 71 | 1006.6 |
| 20260506174316 | 58 | 29 | 3.0 | 6.0 | 0.00 | 1.47 | 1.39 | 71 | 1006.6 |
| 20260506174207 | 58 | 22 | 3.0 | 6.0 | 0.00 | 1.47 | 1.39 | 72 | 1006.5 |
| 20260506174107 | 58 | 17 | 3.0 | 6.0 | 0.00 | 1.47 | 1.39 | 72 | 1006.4 |
| 20260506174007 | 58 | 15 | 3.0 | 6.0 | 0.00 | 1.47 | 1.39 | 73 | 1006.4 |
| 20260506173907 | 58 | 8 | 3.0 | 6.0 | 0.00 | 1.47 | 1.39 | 73 | 1006.4 |
| 20260506173807 | 58 | 357 | 3.0 | 6.0 | 0.00 | 1.47 | 1.39 | 73 | 1006.3 |
| 20260506173707 | 58 | 351 | 4.0 | 6.0 | 0.00 | 1.47 | 1.39 | 73 | 1006.3 |
| 20260506173608 | 58 | 344 | 4.0 | 7.0 | 0.00 | 1.47 | 1.39 | 73 | 1006.2 |
| 20260506173316 | 58 | 334 | 5.0 | 7.0 | 0.00 | 1.47 | 1.39 | 73 | 1006.3 |
| 20260506173107 | 58 | 330 | 5.0 | 7.0 | 0.00 | 1.47 | 1.39 | 73 | 1006.2 |
| 20260506173007 | 58 | 328 | 5.0 | 7.0 | 0.00 | 1.47 | 1.39 | 73 | 1006.3 |
| 20260506172907 | 58 | 328 | 5.0 | 9.0 | 0.00 | 1.47 | 1.39 | 73 | 1006.4 |
| 20260506172707 | 58 | 328 | 6.0 | 9.0 | 0.00 | 1.47 | 1.39 | 73 | 1006.3 |
| 20260506172607 | 58 | 328 | 6.0 | 9.0 | 0.00 | 1.47 | 1.39 | 73 | 1006.3 |
| 20260506172508 | 58 | 329 | 6.0 | 9.0 | 0.00 | 1.47 | 1.39 | 73 | 1006.2 |
| 20260506172407 | 58 | 331 | 5.0 | 9.0 | 0.00 | 1.47 | 1.39 | 74 | 1006.3 |
| 20260506172313 | 58 | 330 | 6.0 | 9.0 | 0.00 | 1.47 | 1.39 | 73 | 1006.3 |
| 20260506172207 | 58 | 329 | 6.0 | 9.0 | 0.00 | 1.47 | 1.39 | 74 | 1006.3 |
| 20260506172107 | 58 | 329 | 6.0 | 9.0 | 0.00 | 1.47 | 1.39 | 73 | 1006.2 |
| 20260506172007 | 58 | 328 | 6.0 | 9.0 | 0.00 | 1.47 | 1.39 | 73 | 1006.3 |
| 20260506171807 | 58 | 328 | 5.0 | 8.0 | 0.00 | 1.47 | 1.39 | 73 | 1006.4 |
| 20260506171707 | 58 | 329 | 5.0 | 8.0 | 0.00 | 1.47 | 1.39 | 74 | 1006.4 |
| 20260506171507 | 58 | 329 | 5.0 | 8.0 | 0.00 | 1.47 | 1.39 | 74 | 1006.5 |
| 20260506171407 | 58 | 328 | 5.0 | 8.0 | 0.00 | 1.47 | 1.39 | 73 | 1006.4 |
| 20260506171107 | 58 | 329 | 3.0 | 8.0 | 0.00 | 1.47 | 1.39 | 73 | 1006.5 |
| 20260506171007 | 58 | 332 | 3.0 | 8.0 | 0.00 | 1.47 | 1.39 | 73 | 1006.6 |
| 20260506170907 | 58 | 334 | 2.0 | 6.0 | 0.00 | 1.47 | 1.39 | 72 | 1006.5 |
| 20260506170807 | 58 | 335 | 2.0 | 6.0 | 0.00 | 1.47 | 1.39 | 72 | 1006.5 |
| 20260506170707 | 58 | 337 | 2.0 | 5.0 | 0.00 | 1.47 | 1.39 | 72 | 1006.5 |
| 20260506170614 | 58 | 340 | 1.0 | 5.0 | 0.00 | 1.47 | 1.39 | 72 | 1006.4 |
| 20260506170507 | 58 | 343 | 1.0 | 5.0 | 0.00 | 1.47 | 1.39 | 72 | 1006.5 |
| 20260506170407 | 58 | 352 | 1.0 | 4.0 | 0.00 | 1.47 | 1.39 | 72 | 1006.4 |
| 20260506170307 | 58 | 10 | 1.0 | 4.0 | 0.00 | 1.47 | 1.39 | 71 | 1006.4 |
| 20260506170207 | 58 | 111 | 1.0 | 3.0 | 0.00 | 1.47 | 1.39 | 72 | 1006.4 |
| 20260506170107 | 58 | 119 | 0.0 | 2.0 | 0.00 | 1.47 | 1.39 | 71 | 1006.4 |
| 20260506170008 | 58 | 125 | 0.0 | 2.0 | 0.00 | 1.47 | 1.39 | 71 | 1006.4 |
| 20260506165907 | 58 | 134 | 0.0 | 2.0 | 0.00 | 1.47 | 1.39 | 71 | 1006.4 |
| 20260506165807 | 58 | 142 | 0.0 | 2.0 | 0.00 | 1.47 | 1.39 | 71 | 1006.3 |
| 20260506165613 | 58 | 143 | 0.0 | 2.0 | 0.00 | 1.47 | 1.39 | 72 | 1006.3 |
| 20260506165508 | 58 | 139 | 1.0 | 2.0 | 0.00 | 1.47 | 1.39 | 73 | 1006.4 |
| 20260506165406 | 58 | 146 | 0.0 | 2.0 | 0.00 | 1.47 | 1.39 | 73 | 1006.2 |
| 20260506165307 | 58 | 162 | 1.0 | 2.0 | 0.00 | 1.47 | 1.39 | 73 | 1006.3 |
| 20260506165207 | 58 | 277 | 0.0 | 2.0 | 0.00 | 1.47 | 1.39 | 74 | 1006.2 |
| 20260506165107 | 58 | 301 | 1.0 | 2.0 | 0.00 | 1.47 | 1.39 | 74 | 1006.2 |
| 20260506164807 | 58 | 332 | 1.0 | 3.0 | 0.00 | 1.47 | 1.39 | 72 | 1006.1 |
| 20260506164612 | 58 | 333 | 1.0 | 5.0 | 0.00 | 1.47 | 1.39 | 71 | 1006.0 |
| 20260506164407 | 58 | 335 | 2.0 | 6.0 | 0.00 | 1.47 | 1.39 | 70 | 1006.0 |
| 20260506164207 | 58 | 336 | 3.0 | 7.0 | 0.00 | 1.47 | 1.39 | 70 | 1006.0 |
| 20260506164107 | 58 | 338 | 4.0 | 7.0 | 0.00 | 1.47 | 1.39 | 70 | 1006.0 |
| 20260506164007 | 58 | 338 | 4.0 | 7.0 | 0.00 | 1.47 | 1.39 | 70 | 1006.0 |
| 20260506163907 | 58 | 339 | 4.0 | 9.0 | 0.00 | 1.47 | 1.39 | 70 | 1006.1 |
| 20260506163807 | 58 | 344 | 4.0 | 9.0 | 0.00 | 1.47 | 1.39 | 70 | 1006.2 |
| 20260506163614 | 58 | 3 | 5.0 | 9.0 | 0.00 | 1.47 | 1.39 | 70 | 1006.2 |
| 20260506163507 | 58 | 19 | 5.0 | 11.0 | 0.00 | 1.47 | 1.39 | 70 | 1006.2 |
| 20260506163407 | 58 | 37 | 5.0 | 11.0 | 0.00 | 1.47 | 1.39 | 70 | 1006.1 |
| 20260506163307 | 59 | 51 | 6.0 | 12.0 | 0.00 | 1.47 | 1.39 | 69 | 1006.1 |
| 20260506163207 | 59 | 56 | 6.0 | 14.0 | 0.00 | 1.47 | 1.39 | 68 | 1006.2 |
| 20260506163007 | 59 | 64 | 7.0 | 14.0 | 0.00 | 1.47 | 1.39 | 67 | 1006.1 |
| 20260506162907 | 59 | 67 | 6.0 | 14.0 | 0.00 | 1.47 | 1.39 | 67 | 1006.2 |
| 20260506162807 | 59 | 67 | 7.0 | 14.0 | 0.00 | 1.47 | 1.39 | 66 | 1006.2 |
| 20260506162707 | 59 | 65 | 7.0 | 14.0 | 0.00 | 1.47 | 1.39 | 65 | 1006.2 |
| 20260506162613 | 59 | 62 | 7.0 | 14.0 | 0.00 | 1.47 | 1.39 | 65 | 1006.2 |
| 20260506162508 | 59 | 61 | 7.0 | 14.0 | 0.00 | 1.47 | 1.39 | 65 | 1006.0 |
| 20260506162407 | 59 | 57 | 6.0 | 14.0 | 0.00 | 1.47 | 1.39 | 65 | 1006.0 |
| 20260506162307 | 59 | 56 | 6.0 | 14.0 | 0.00 | 1.47 | 1.39 | 66 | 1006.0 |
| 20260506161907 | 59 | 65 | 6.0 | 12.0 | 0.00 | 1.47 | 1.39 | 66 | 1005.8 |
| 20260506161807 | 59 | 68 | 6.0 | 12.0 | 0.00 | 1.47 | 1.39 | 66 | 1005.8 |
| 20260506161707 | 59 | 71 | 6.0 | 12.0 | 0.00 | 1.47 | 1.39 | 67 | 1005.7 |
| 20260506161613 | 59 | 73 | 6.0 | 13.0 | 0.00 | 1.47 | 1.39 | 67 | 1005.7 |
| 20260506161507 | 59 | 74 | 6.0 | 13.0 | 0.00 | 1.47 | 1.39 | 68 | 1005.6 |
| 20260506161407 | 58 | 75 | 7.0 | 13.0 | 0.00 | 1.47 | 1.39 | 68 | 1005.7 |
| 20260506161307 | 58 | 73 | 7.0 | 13.0 | 0.00 | 1.47 | 1.39 | 68 | 1005.7 |
| 20260506161207 | 58 | 71 | 7.0 | 13.0 | 0.00 | 1.47 | 1.39 | 67 | 1005.6 |
| 20260506161107 | 58 | 72 | 8.0 | 13.0 | 0.00 | 1.47 | 1.39 | 67 | 1005.6 |
| 20260506160907 | 58 | 76 | 8.0 | 13.0 | 0.00 | 1.47 | 1.39 | 67 | 1005.6 |
| 20260506160807 | 58 | 75 | 8.0 | 13.0 | 0.00 | 1.47 | 1.39 | 67 | 1005.6 |
| 20260506160607 | 58 | 65 | 5.0 | 6.0 | 0.00 | 1.47 | 1.39 | 69 | 1005.6 |
| 20260506160507 | 58 | 76 | 5.0 | 6.0 | 0.00 | 1.47 | 1.39 | 69 | 1005.7 |
| 20260506160307 | 58 | 97 | 6.0 | 6.0 | 0.00 | 1.47 | 1.39 | 69 | 1005.6 |
| 20260506073207 | 53 | 311 | 2.0 | 4.0 | 0.10 | 0.26 | 0.10 | 93 | 1006.4 |
| 20260506073107 | 53 | 306 | 2.0 | 4.0 | 0.09 | 0.25 | 0.09 | 93 | 1006.3 |
| 20260506073008 | 53 | 301 | 2.0 | 4.0 | 0.09 | 0.24 | 0.09 | 93 | 1006.4 |
| 20260506072907 | 53 | 299 | 2.0 | 4.0 | 0.00 | 0.24 | 0.08 | 93 | 1006.3 |
| 20260506072809 | 53 | 300 | 2.0 | 4.0 | 0.00 | 0.23 | 0.07 | 93 | 1006.4 |
| 20260506072707 | 53 | 300 | 2.0 | 4.0 | 0.00 | 0.23 | 0.07 | 93 | 1006.5 |
| 20260506072607 | 53 | 301 | 3.0 | 4.0 | 0.00 | 0.22 | 0.06 | 93 | 1006.4 |
| 20260506072519 | 53 | 307 | 2.0 | 4.0 | 0.00 | 0.20 | 0.05 | 93 | 1006.5 |
| 20260506072406 | 53 | 316 | 2.0 | 4.0 | 0.00 | 0.24 | 0.04 | 93 | 1006.5 |
| 20260506072308 | 53 | 318 | 2.0 | 4.0 | 0.00 | 0.24 | 0.04 | 93 | 1006.6 |
| 20260506071907 | 53 | 327 | 3.0 | 5.0 | 0.00 | 0.24 | 0.04 | 93 | 1006.7 |
| 20260506071809 | 53 | 331 | 3.0 | 5.0 | 0.00 | 0.23 | 0.03 | 93 | 1006.7 |
| 20260506071707 | 53 | 334 | 3.0 | 6.0 | 0.00 | 0.23 | 0.03 | 93 | 1006.7 |
| 20260506071606 | 53 | 335 | 3.0 | 6.0 | 0.00 | 0.23 | 0.03 | 93 | 1006.7 |
| 20260506071518 | 53 | 336 | 3.0 | 6.0 | 0.00 | 0.23 | 0.03 | 93 | 1006.7 |
| 20260506071407 | 53 | 337 | 3.0 | 6.0 | 0.00 | 0.27 | 0.03 | 93 | 1006.8 |
| 20260506071307 | 53 | 338 | 3.0 | 6.0 | 0.00 | 0.26 | 0.02 | 93 | 1006.7 |
| 20260506071207 | 53 | 340 | 3.0 | 6.0 | 0.00 | 0.26 | 0.02 | 93 | 1006.7 |
| 20260506071107 | 53 | 342 | 3.0 | 6.0 | 0.00 | 0.26 | 0.02 | 93 | 1006.7 |
| 20260506070906 | 53 | 340 | 2.0 | 6.0 | 0.00 | 0.26 | 0.02 | 93 | 1006.7 |
| 20260506070808 | 53 | 338 | 2.0 | 6.0 | 0.00 | 0.26 | 0.02 | 93 | 1006.7 |
| 20260506070607 | 53 | 332 | 1.0 | 5.0 | 0.00 | 0.25 | 0.02 | 93 | 1006.8 |
| 20260506070517 | 53 | 320 | 1.0 | 4.0 | 0.00 | 0.25 | 0.02 | 93 | 1006.8 |
| 20260506070406 | 53 | 240 | 1.0 | 4.0 | 0.00 | 0.25 | 0.02 | 93 | 1006.8 |
| 20260506070306 | 53 | 234 | 1.0 | 4.0 | 0.00 | 0.24 | 0.01 | 93 | 1006.8 |
| 20260506070207 | 53 | 229 | 1.0 | 4.0 | 0.00 | 0.24 | 0.01 | 93 | 1006.7 |
| 20260506070107 | 53 | 236 | 1.0 | 4.0 | 0.00 | 0.24 | 0.01 | 93 | 1006.8 |
| 20260506062405 | 53 | 274 | 2.0 | 6.0 | 0.23 | 0.70 | 0.33 | 93 | 1006.7 |
| 20260506062305 | 53 | 264 | 2.0 | 5.0 | 0.23 | 0.69 | 0.32 | 93 | 1006.6 |
| 20260506062205 | 53 | 262 | 1.0 | 4.0 | 0.23 | 0.70 | 0.32 | 93 | 1006.8 |
| 20260506062004 | 53 | 286 | 1.0 | 3.0 | 0.21 | 0.68 | 0.30 | 93 | 1006.7 |
| 20260506061910 | 53 | 299 | 1.0 | 5.0 | 0.20 | 0.68 | 0.29 | 93 | 1006.6 |
| 20260506061804 | 53 | 310 | 2.0 | 5.0 | 0.21 | 0.68 | 0.28 | 93 | 1006.6 |
| 20260506061704 | 53 | 319 | 2.0 | 5.0 | 0.20 | 0.68 | 0.28 | 93 | 1006.6 |
| 20260506061403 | 53 | 315 | 2.0 | 5.0 | 0.20 | 0.67 | 0.26 | 93 | 1006.6 |
| 20260506061303 | 53 | 313 | 2.0 | 5.0 | 0.20 | 0.66 | 0.25 | 93 | 1006.6 |
| 20260506061204 | 53 | 310 | 2.0 | 5.0 | 0.20 | 0.67 | 0.25 | 93 | 1006.6 |
| 20260506061104 | 53 | 309 | 2.0 | 5.0 | 0.22 | 0.67 | 0.25 | 93 | 1006.6 |
| 20260506061004 | 53 | 310 | 2.0 | 5.0 | 0.21 | 0.66 | 0.24 | 93 | 1006.5 |
| 20260506060903 | 53 | 312 | 2.0 | 5.0 | 0.21 | 0.65 | 0.24 | 93 | 1006.5 |
| 20260506060805 | 53 | 315 | 2.0 | 5.0 | 0.21 | 0.65 | 0.24 | 93 | 1006.5 |
| 20260506060703 | 53 | 318 | 2.0 | 4.0 | 0.20 | 0.65 | 0.23 | 93 | 1006.6 |
| 20260506060605 | 53 | 324 | 2.0 | 4.0 | 0.20 | 0.65 | 0.23 | 93 | 1006.6 |
| 20260506060405 | 53 | 325 | 2.0 | 4.0 | 0.20 | 0.65 | 0.22 | 93 | 1006.5 |
| 20260506060311 | 53 | 333 | 2.0 | 4.0 | 0.20 | 0.65 | 0.22 | 93 | 1006.6 |
| 20260506060204 | 53 | 338 | 2.0 | 4.0 | 0.20 | 0.66 | 0.22 | 93 | 1006.6 |
| 20260506060104 | 53 | 339 | 2.0 | 4.0 | 0.19 | 0.65 | 0.21 | 93 | 1006.5 |
| 20260506051404 | 53 | 345 | 2.0 | 3.0 | 0.06 | 0.59 | 0.06 | 93 | 1006.9 |
| 20260506051304 | 53 | 346 | 2.0 | 3.0 | 0.05 | 0.58 | 0.05 | 93 | 1007.0 |
| 20260506051203 | 53 | 347 | 2.0 | 3.0 | 0.03 | 0.57 | 0.03 | 93 | 1006.9 |
| 20260506051004 | 53 | 346 | 1.0 | 3.0 | 0.03 | 0.57 | 0.03 | 93 | 1007.0 |
| 20260506050904 | 53 | 345 | 1.0 | 3.0 | 0.02 | 0.57 | 0.02 | 93 | 1007.1 |
| 20260506050514 | 53 | 349 | 1.0 | 2.0 | 0.02 | 0.57 | 0.02 | 93 | 1007.0 |
| 20260506050304 | 53 | 350 | 0.0 | 2.0 | 0.02 | 0.57 | 0.02 | 93 | 1007.1 |
| 20260506045104 | 53 | 336 | 2.0 | 3.0 | 0.02 | 0.60 | 0.02 | 92 | 1007.2 |
| 20260506045004 | 53 | 334 | 2.0 | 3.0 | 0.02 | 0.60 | 0.02 | 92 | 1007.1 |
| 20260506044904 | 53 | 332 | 2.0 | 3.0 | 0.02 | 0.60 | 0.02 | 93 | 1007.1 |
| 20260506044804 | 53 | 330 | 2.0 | 3.0 | 0.02 | 0.60 | 0.02 | 93 | 1007.2 |
| 20260506044703 | 53 | 330 | 2.0 | 3.0 | 0.02 | 0.60 | 0.02 | 92 | 1007.2 |
| 20260506044604 | 53 | 327 | 1.0 | 3.0 | 0.02 | 0.60 | 0.02 | 92 | 1007.2 |
| 20260506044504 | 53 | 328 | 1.0 | 3.0 | 0.02 | 0.60 | 0.02 | 92 | 1007.2 |
| 20260506044403 | 53 | 329 | 1.0 | 3.0 | 0.02 | 0.60 | 0.02 | 93 | 1007.2 |
| 20260506044204 | 53 | 328 | 1.0 | 3.0 | 0.01 | 0.59 | 0.01 | 93 | 1007.3 |
| 20260506044104 | 53 | 330 | 1.0 | 3.0 | 0.01 | 0.59 | 0.01 | 93 | 1007.3 |
| 20260506044004 | 53 | 329 | 2.0 | 3.0 | 0.00 | 0.59 | 0.00 | 92 | 1007.3 |
| 20260506043804 | 53 | 328 | 2.0 | 3.0 | 0.00 | 0.59 | 0.00 | 92 | 1007.3 |
| 20260506043704 | 53 | 328 | 2.0 | 3.0 | 0.00 | 0.59 | 0.00 | 93 | 1007.2 |
| 20260506043504 | 53 | 325 | 2.0 | 3.0 | 0.00 | 0.59 | 0.00 | 92 | 1007.3 |
| 20260506043404 | 53 | 323 | 2.0 | 3.0 | 0.00 | 0.59 | 0.00 | 92 | 1007.3 |
| 20260506043303 | 53 | 321 | 2.0 | 3.0 | 0.00 | 0.60 | 0.00 | 92 | 1007.4 |
| 20260506043104 | 53 | 314 | 2.0 | 3.0 | 0.00 | 0.60 | 0.00 | 92 | 1007.4 |
| 20260506043004 | 53 | 311 | 2.0 | 3.0 | 0.00 | 0.60 | 0.00 | 93 | 1007.4 |
| 20260506042904 | 53 | 312 | 2.0 | 3.0 | 0.00 | 0.60 | 0.00 | 93 | 1007.4 |
| 20260506042803 | 53 | 311 | 2.0 | 3.0 | 0.00 | 0.60 | 0.00 | 92 | 1007.4 |
| 20260506042704 | 53 | 310 | 2.0 | 3.0 | 0.00 | 0.60 | 0.00 | 92 | 1007.4 |
| 20260506042504 | 53 | 315 | 2.0 | 3.0 | 0.00 | 0.60 | 0.00 | 93 | 1007.4 |
| 20260506042404 | 53 | 319 | 2.0 | 3.0 | 0.00 | 0.60 | 0.00 | 92 | 1007.4 |
| 20260506042305 | 53 | 322 | 2.0 | 3.0 | 0.00 | 0.60 | 0.00 | 92 | 1007.4 |
| 20260506042204 | 53 | 326 | 2.0 | 4.0 | 0.00 | 0.60 | 0.00 | 92 | 1007.5 |
| 20260506042104 | 53 | 329 | 2.0 | 4.0 | 0.00 | 0.60 | 0.00 | 92 | 1007.4 |
| 20260506042004 | 53 | 332 | 2.0 | 4.0 | 0.00 | 0.60 | 0.00 | 92 | 1007.5 |
| 20260506041904 | 53 | 335 | 3.0 | 4.0 | 0.00 | 0.61 | 0.00 | 92 | 1007.5 |
| 20260506041804 | 53 | 339 | 3.0 | 4.0 | 0.00 | 0.61 | 0.00 | 92 | 1007.5 |
| 20260506041705 | 53 | 343 | 3.0 | 4.0 | 0.00 | 0.61 | 0.00 | 92 | 1007.5 |
| 20260506041603 | 53 | 345 | 3.0 | 4.0 | 0.00 | 0.61 | 0.00 | 92 | 1007.6 |
| 20260506041504 | 53 | 346 | 3.0 | 4.0 | 0.00 | 0.61 | 0.00 | 92 | 1007.5 |
| 20260506041403 | 53 | 346 | 3.0 | 4.0 | 0.00 | 0.61 | 0.00 | 92 | 1007.7 |
| 20260506041303 | 53 | 346 | 3.0 | 4.0 | 0.00 | 0.61 | 0.00 | 92 | 1007.6 |
| 20260506041205 | 53 | 347 | 3.0 | 4.0 | 0.00 | 0.61 | 0.00 | 92 | 1007.6 |
| 20260506041103 | 53 | 349 | 3.0 | 4.0 | 0.00 | 0.61 | 0.00 | 92 | 1007.6 |
| 20260506041004 | 53 | 350 | 3.0 | 4.0 | 0.00 | 0.61 | 0.00 | 92 | 1007.6 |